星链-4181 (STARLINK-4181 )

导读 | 星芒AI

STARLINK-4181 是 SpaceX Starlink 项目中的一颗低轨通信卫星,属于该星座的众多卫星之一,旨在为全球提供高速互联网服务。该卫星于2022年发射,运行在约550公里高度的近地轨道,采用先进推进系统和激光通信技术,以提高网络效率和减少延迟。Starlink 卫星群致力于覆盖偏远地区,提升全球互联网接入能力。

基本信息
目录编号:
52882
目录名称:
STARLINK-4181
国际标识:
2022-062BE
轨道中心:
EARTH
卫星名称:
星链-4181
卫星全名:
星链-4181 (STARLINK-4181 )
卫星状态:
在轨 (已飞行1283 天)
发射日期:
2022-06-17 UTC
国别 :
美国 (US)
星等 :
--
轨道信息
数据来源 国际轨道数据
星历时间: 2025-12-21T02:41:46+0800
10小时前
查看轨道信息
半长轴: 6917.919km
偏心率: 0.0001186
轨道倾角: 53.219°
近地点辐角 88.926°
升交点赤经 7.941°
平近点角 271.186°
近地点: 538.961km
远地点: 540.603km
周期: 95.438分钟
每日圈数: 15.088275
详细信息
固有亮度:
5
最大亮度:
2.5
卫星平台:
Starlink v1.5
覆盖范围:
全球
运营商:
太空探索技术公司
运营商所在国:
美国
制造商(研发单位):
太空探索技术公司
制造商所在国:
美国
使用方式:
暂无
卫星简介
星链(Starlink)计划是由太空探索技术公司(SpaceX)提出的一个巨型低轨卫星互联网星座项目,计划在2019年至2024年间在太空搭建由约1.2万颗卫星组成的“星链”网络,其中1584颗将部署在地球上空550千米处的近地轨道,并从2020年开始工作。该卫星仍在工作。
2D轨道图
3D轨道图
轨道高度分析图
轨道倾角分析图
轨道综合分析图
查看轨道综合分析图